Flag Weather past 2 weeks in Mason, Ohio, U.S.A.

Now
33 °F

Clear.


Feels Like: 27 °F
Forecast: 29 / 40 °F
Wind: 7 mph from Northeast

Location: Butler County Regional Airport

Current Time: Nov 26, 2014 at 6:30:18 PM

Latest Report: Nov 26, 2014 at 5:53 PM


Visibility: 10 mi

Pressure: 30.06 "Hg

Humidity: 75%

Dew point: 26 °F

Location of MasonLocation

Historic Weather in Mason — Graph

°F

Mason temperature yesterday

Maximum temperature yesterday: 43 °F (at 11:53 AM)
Minimum temperature yesterday: 28 °F (at 9:53 PM)
Average temperature yesterday: 36 °F

Past Weeks' High & Low Weather Summary

 TemperatureHumidityPressure
High63 °F (Nov 24, 8:53 AM)100% (Nov 16, 6:53 PM)30.58 "Hg (Nov 16, 6:53 PM)
Low8 °F (Nov 21, 5:53 AM)37% (Nov 15, 3:53 PM)29.26 "Hg (Nov 23, 11:53 PM)
Average33 °F71%30.14 "Hg
* Reported Nov 11 4:53 PM — Nov 26 4:53 PM, Mason, Weather by CustomWeather, © 2014

Note: Actual official high and low records may vary slightly from our data, if they occured in-between our weather recording intervals... More about our weather records

Advertising

Mason weather history for previous 24 hours

 ConditionsComfort  
Time TempWeatherWind HumidityBarometerVisibility
4:53 PM
Nov 26
34 °FPassing clouds.6 mph70%30.08 "Hg10 mi
3:53 PM37 °FOvercast.No wind65%30.09 "Hg10 mi
2:53 PM37 °FOvercast.5 mph67%30.09 "Hg10 mi
1:53 PM37 °FMostly cloudy.3 mph67%30.10 "Hg9 mi
12:53 PM36 °FMore clouds than sun.No wind70%30.11 "Hg8 mi
11:53 AM34 °FMore clouds than sun.3 mph73%30.14 "Hg9 mi
10:53 AM33 °FMostly cloudy.5 mph75%30.17 "Hg8 mi
9:53 AM32 °FOvercast.7 mph79%30.18 "Hg9 mi
8:53 AM31 °FOvercast.6 mph85%30.17 "Hg7 mi
7:53 AM31 °FOvercast.3 mph82%30.16 "Hg7 mi
6:53 AM30 °FOvercast.7 mph85%30.15 "Hg8 mi
5:53 AM30 °FOvercast.3 mph85%30.16 "Hg9 mi
4:53 AM29 °FOvercast.7 mph89%30.14 "Hg9 mi
4:03 AM28 °FMostly cloudy.5 mph89%30.17 "Hg9 mi
3:53 AM29 °FPassing clouds.3 mph89%30.18 "Hg9 mi
2:53 AM25 °FPassing clouds.5 mph92%30.18 "Hg7 mi
1:53 AM26 °FIce fog.No wind96%30.20 "Hg6 mi
12:53 AM28 °FPassing clouds.No wind93%30.19 "Hg7 mi
11:53 PM
Nov 25
30 °FClear.No wind89%30.21 "Hg7 mi
10:53 PM28 °FClear.No wind93%30.22 "Hg7 mi
9:53 PM28 °FClear.No wind89%30.23 "Hg8 mi
8:53 PM30 °FClear.No wind85%30.22 "Hg9 mi
7:53 PM32 °FClear.3 mph79%30.19 "Hg10 mi
6:53 PM34 °FClear.3 mph76%30.19 "Hg10 mi
Weather by CustomWeather, © 2014

See weather overviewHow to use our weather pages